Snowfall_Accumulation
0.0 0.0 0.0 0.0 0.0 0.0 0.0 0.0 0.0 0.0 0.0 0.0 0.0 0.0 0.0 0.0 0.0 0.0 0.0 0.0 0.0 0.0 0.0 0.0 0.0 0.0 0.0 0.0 0.0 0.0 0.0 0.1 0.4 0.1 0.0 0.0 0.0 0.0 0.0 0.0 0.0 0.0 0.0
0.0 0.0 0.0 0.0 0.0 0.0 0.0 0.0 0.0 0.0 0.0 0.0 0.0 0.0 0.0 0.0 0.0 0.0 0.0 0.0 0.0 0.0 0.0 0.0 0.0 0.0 0.1 0.0 0.0 0.0 0.1 0.1 0.2 0.1 0.0 0.1 0.1 0.1 0.1 0.1 0.0 0.0 0.0
0.0 0.0 0.0 0.0 0.0 0.0 0.0 0.0 0.0 0.0 0.0 0.0 0.0 0.0 0.0 0.0 0.0 0.0 0.0 0.0 0.0 0.0 0.0 0.0 0.0 0.1 0.1 0.2 0.1 0.1 0.1 0.1 0.1 0.3 0.3 0.2 0.2 0.2 0.1 0.1 0.0 0.0 0.0
0.0 0.0 0.0 0.0 0.0 0.0 0.0 0.0 0.0 0.0 0.0 0.0 0.0 0.0 0.0 0.0 0.0 0.0 0.0 0.0 0.0 0.0 0.0 0.1 0.1 0.0 0.1 0.2 0.3 0.3 0.4 0.9 0.7 0.5 0.3 0.2 0.2 0.2 0.1 0.1 0.1 0.1 0.1
0.0 0.0 0.0 0.0 0.0 0.0 0.1 0.1 0.1 0.1 0.0 0.0 0.0 0.1 0.0 0.0 0.0 0.0 0.0 0.1 0.1 0.1 0.1 0.1 0.1 0.0 nan nan 0.7 1.0 0.9 1.4 2.1 2.5 0.9 0.4 0.3 0.3 0.3 0.1 0.3 0.2 0.1
0.0 0.0 0.0 0.1 0.2 0.3 0.3 0.3 0.2 0.2 0.2 0.2 0.2 0.2 0.2 0.0 nan nan 0.1 0.1 0.2 0.1 0.1 0.2 0.3 0.5 0.3 nan nan nan nan 2.5 9.7 8.3 1.0 0.8 0.3 0.3 0.2 0.2 0.5 0.6 1.1
0.2 0.5 0.5 0.4 0.5 0.4 0.3 0.3 0.3 0.3 0.3 0.3 0.4 0.3 0.5 0.3 nan nan nan 0.3 0.3 0.1 0.2 0.4 0.6 0.4 0.7 0.5 nan nan nan nan nan 0.4 1.2 0.9 1.1 0.6 0.5 0.5 0.3 0.8 0.9
0.4 1.0 0.8 0.5 1.1 0.6 0.5 0.6 0.4 0.3 0.5 0.5 0.6 0.6 0.6 0.5 nan nan nan 0.3 0.4 0.4 0.4 0.6 0.9 1.0 1.0 1.1 1.1 1.7 1.0 0.8 0.5 0.6 0.8 0.8 0.6 0.4 0.5 0.8 1.5 1.8 1.5
0.2 0.4 0.5 0.8 1.6 0.8 2.3 0.9 0.7 1.4 1.2 2.2 2.0 3.5 2.8 2.5 nan nan 0.7 1.5 1.4 1.3 0.6 1.0 1.3 1.4 nan nan 2.8 5.4 3.7 2.4 nan nan nan nan nan nan nan 6.6 16.0 17.6 8.8
0.2 0.2 0.4 0.9 2.7 2.2 0.9 1.8 2.2 2.5 2.5 3.6 3.5 3.2 1.3 4.9 nan nan nan 5.2 6.6 4.1 2.5 1.4 1.1 1.8 nan nan 3.2 5.4 7.6 3.5 3.0 4.8 1.9 1.0 nan nan nan 1.6 5.7 17.5 9.0
0.8 0.8 1.1 1.1 3.2 1.6 2.1 1.7 3.2 4.6 3.0 5.0 4.7 3.9 4.5 2.6 2.6 nan nan 3.7 5.3 7.4 6.9 5.0 3.2 nan nan nan nan 5.7 5.4 3.9 8.1 6.5 5.2 5.0 3.8 2.9 2.5 2.0 1.3 3.2 7.4
1.7 1.9 2.4 4.1 3.4 3.4 7.4 5.0 6.9 6.8 6.8 6.2 6.4 5.6 4.8 2.8 nan nan nan nan nan 10.6 6.3 3.3 3.4 nan nan nan 3.0 nan nan 3.3 11.4 12.0 9.9 7.2 4.7 4.4 2.8 2.5 1.0 1.3 1.0
5.0 7.0 7.0 5.9 6.2 6.1 9.0 6.5 8.1 7.6 8.5 5.5 7.3 7.1 5.6 5.3 5.7 nan nan nan nan 5.7 4.2 3.4 nan nan nan nan nan nan 1.7 8.3 11.7 13.3 8.3 4.5 2.4 1.7 1.2 2.2 1.3 1.2 1.1
9.5 5.2 4.3 5.7 4.0 4.9 6.0 7.0 10.6 9.1 8.0 8.9 10.4 10.0 6.9 6.7 5.0 5.1 8.1 5.1 2.9 6.8 nan 5.3 nan 4.2 nan nan 4.1 3.5 5.8 6.2 6.9 7.7 5.7 2.8 2.6 4.2 4.8 3.2 5.3 4.6 8.6
6.8 3.8 4.4 6.2 6.9 4.8 4.7 7.0 6.7 4.4 9.1 16.3 18.9 14.2 14.8 13.4 9.7 5.5 12.1 13.1 11.2 11.2 8.8 15.2 12.5 8.3 7.8 6.8 8.2 7.2 6.6 7.4 8.5 8.1 8.1 7.5 6.8 6.5 6.3 4.8 5.4 7.2 9.9
4.1 6.0 5.8 5.6 4.6 4.3 4.6 4.9 nan nan nan nan nan 9.7 13.2 nan nan nan nan nan nan nan 21.1 23.1 12.1 9.4 7.2 7.3 8.9 8.1 7.2 6.5 7.0 8.2 9.1 9.0 9.6 7.8 8.1 8.7 8.5 9.9 11.0
7.3 5.0 6.4 5.0 5.5 6.2 6.5 7.5 8.7 6.4 nan nan nan nan nan nan nan nan nan nan nan nan 33.0 18.3 15.2 10.6 9.8 7.9 9.4 8.6 8.4 6.6 4.5 7.8 7.7 8.3 9.2 10.1 10.5 10.0 9.0 8.5 12.1
7.1 2.1 7.8 7.7 7.4 7.8 8.4 8.7 8.8 10.2 11.5 9.4 nan nan nan nan nan nan nan nan 27.4 nan 24.7 24.8 21.5 17.4 13.5 12.3 10.2 9.8 9.8 9.2 8.7 10.0 10.5 14.2 15.7 16.5 14.9 14.4 10.8 13.3 12.9
7.7 6.6 7.3 7.4 7.2 7.5 8.3 7.4 8.0 8.0 8.4 10.5 10.1 10.2 5.5 nan nan nan nan 18.0 24.4 22.2 22.3 23.1 19.7 18.2 14.7 15.6 15.0 17.0 15.1 15.5 14.7 19.4 19.4 20.5 18.4 19.0 18.4 13.2 10.4 6.4 7.5
8.3 3.4 6.3 10.8 9.8 8.8 6.5 8.0 7.3 7.6 8.4 9.7 10.2 8.9 15.4 15.3 22.0 22.8 19.4 26.0 25.9 23.3 20.5 22.9 23.4 25.4 25.8 23.9 23.5 21.8 22.1 23.2 21.3 22.3 22.1 20.8 19.1 19.8 13.7 17.9 15.4 13.1 14.3
14.7 12.2 2.6 10.5 12.8 13.0 13.3 10.8 8.4 11.4 10.1 12.1 9.4 8.9 nan 15.7 17.1 18.7 21.7 20.3 23.8 25.8 21.7 23.7 25.0 31.2 32.1 34.6 29.4 28.3 26.8 17.4 21.6 23.8 25.1 25.0 24.0 28.6 17.5 11.8 16.3 17.2 16.7
15.9 16.3 16.1 17.3 12.3 12.7 14.4 9.7 10.7 10.9 10.4 9.1 7.0 7.6 nan 10.1 12.8 13.4 15.5 20.4 25.0 25.6 28.9 33.7 33.2 35.9 31.9 29.5 27.0 25.0 21.2 25.0 27.0 25.8 21.7 22.8 26.1 22.5 21.2 14.7 15.2 13.1 16.8
14.3 12.7 13.1 12.8 12.3 6.2 13.4 15.4 13.4 12.6 11.4 12.5 10.9 11.5 13.7 16.6 14.6 14.5 21.9 25.1 20.1 18.9 21.3 22.7 21.3 21.3 19.9 23.1 20.4 19.9 21.7 24.7 25.9 32.4 23.5 24.3 23.7 26.5 23.0 20.1 17.3 18.5 17.1
13.2 13.1 12.5 16.2 14.1 11.5 13.5 14.6 12.4 5.8 12.9 14.3 23.5 18.4 10.8 14.9 22.0 16.3 17.4 20.7 16.9 28.6 20.5 22.2 18.3 17.9 19.5 29.2 36.1 35.4 37.8 39.5 38.4 35.5 32.2 23.2 23.3 19.0 19.5 21.2 16.6 14.7 13.0
15.5 13.1 13.2 12.0 18.4 14.5 13.5 16.4 11.5 16.1 19.3 14.8 18.5 13.9 14.9 13.9 14.9 21.8 20.3 16.6 18.6 17.0 14.6 14.6 15.4 15.9 16.2 17.3 24.0 30.3 29.7 4.3 19.8 4.7 28.5 20.8 25.3 26.0 24.7 20.2 18.5 15.5 12.7
12.1 12.5 12.6 12.9 12.5 14.1 15.0 14.8 15.7 12.5 16.4 17.7 16.6 16.9 14.4 14.4 14.6 17.6 16.4 16.5 13.2 13.7 14.2 15.6 15.6 13.5 12.5 14.6 15.7 6.7 4.0 3.5 23.9 4.0 23.1 19.4 22.8 22.0 21.7 21.8 20.1 18.1 14.5
Water_Equivalent
0.00 0.00 0.00 0.00 0.00 0.00 0.00 0.00 0.00 0.00 0.00 0.00 0.00 0.00 0.00 0.00 0.00 0.00 0.00 0.00 0.00 0.00 0.00 0.00 0.00 0.00 0.00 0.00 0.00 0.00 0.01 0.02 0.11 0.02 0.01 0.01 0.01 0.01 0.00 0.00 0.00 0.00 0.00
0.00 0.00 0.00 0.00 0.00 0.00 0.00 0.00 0.00 0.00 0.00 0.00 0.00 0.00 0.00 0.00 0.00 0.00 0.00 0.01 0.01 0.00 0.00 0.00 0.00 0.00 0.02 0.00 0.00 0.01 0.02 0.02 0.05 0.03 0.01 0.02 0.01 0.01 0.01 0.01 0.00 0.00 0.01
0.00 0.00 0.00 0.00 0.00 0.00 0.00 0.00 0.00 0.00 0.00 0.00 0.00 0.00 0.00 0.00 0.00 0.00 0.00 0.00 0.00 0.00 0.00 0.00 0.01 0.02 0.03 0.06 0.03 0.03 0.03 0.03 0.03 0.07 0.07 0.04 0.03 0.03 0.02 0.01 0.00 0.01 0.01
0.00 0.00 0.00 0.00 0.00 0.00 0.00 0.00 0.00 0.00 0.00 0.00 0.00 0.00 0.00 0.00 0.00 0.00 0.01 0.01 0.01 0.01 0.01 0.01 0.01 0.01 0.03 0.06 0.07 0.07 0.09 0.19 0.16 0.10 0.06 0.04 0.03 0.03 0.02 0.01 0.02 0.01 0.02
0.00 0.00 0.00 0.00 0.00 0.01 0.02 0.03 0.03 0.02 0.00 0.00 0.00 0.01 0.00 0.01 0.00 0.01 0.01 0.03 0.03 0.02 0.02 0.03 0.02 0.01 nan nan 0.15 0.17 0.17 0.26 0.37 0.39 0.13 0.06 0.04 0.03 0.03 0.02 0.04 0.03 0.03
0.00 0.00 0.00 0.03 0.05 0.06 0.06 0.05 0.04 0.03 0.03 0.03 0.03 0.03 0.03 0.01 nan nan 0.02 0.03 0.04 0.03 0.03 0.05 0.06 0.11 0.07 nan nan nan nan 0.39 1.07 0.96 0.14 0.10 0.04 0.05 0.03 0.03 0.08 0.10 0.16
0.05 0.09 0.08 0.07 0.08 0.07 0.06 0.05 0.05 0.04 0.04 0.05 0.05 0.05 0.06 0.06 nan nan nan 0.07 0.06 0.03 0.05 0.09 0.12 0.09 0.19 0.09 nan nan nan nan nan 0.07 0.15 0.13 0.15 0.09 0.08 0.06 0.05 0.13 0.15
0.07 0.14 0.11 0.07 0.15 0.07 0.07 0.08 0.06 0.05 0.07 0.06 0.08 0.08 0.08 0.07 nan nan nan 0.06 0.07 0.08 0.09 0.13 0.16 0.17 0.18 0.22 0.21 0.24 0.15 0.13 0.08 0.09 0.11 0.12 0.09 0.05 0.07 0.11 0.19 0.26 0.24
0.04 0.06 0.07 0.11 0.20 0.10 0.28 0.11 0.08 0.17 0.14 0.24 0.24 0.41 0.34 0.32 nan nan 0.14 0.24 0.21 0.19 0.10 0.15 0.19 0.21 nan nan 0.35 0.58 0.43 0.32 nan nan nan nan nan nan nan 0.98 2.15 2.33 1.15
0.04 0.04 0.05 0.11 0.34 0.27 0.12 0.22 0.28 0.30 0.27 0.41 0.38 0.38 0.25 0.58 nan nan nan 0.79 0.79 0.53 0.32 0.20 0.33 0.27 nan nan 0.41 0.61 0.82 0.41 0.37 0.58 0.26 0.15 nan nan nan 0.21 0.80 2.17 1.19
0.11 0.11 0.13 0.13 0.39 0.20 0.26 0.22 0.39 0.49 0.32 0.55 0.52 0.44 0.52 0.38 0.36 nan nan 0.52 0.72 0.95 0.91 0.64 0.43 nan nan nan nan 0.67 0.60 0.48 0.92 0.73 0.60 0.60 0.50 0.40 0.36 0.28 0.17 0.46 0.97
0.21 0.22 0.28 0.47 0.42 0.43 0.87 0.56 0.78 0.73 0.73 0.66 0.69 0.61 0.57 0.34 nan nan nan nan nan 1.45 0.80 0.44 0.46 nan nan nan 0.63 nan nan 0.73 1.51 1.42 1.16 0.84 0.56 0.52 0.36 0.32 0.12 0.17 0.16
0.51 0.73 0.73 0.67 0.70 0.71 1.04 0.69 0.95 0.82 0.92 0.58 0.78 0.77 0.61 0.62 0.71 nan nan nan nan 0.85 0.61 0.45 nan nan nan nan nan nan 0.58 1.15 1.40 1.47 0.90 0.52 0.29 0.21 0.15 0.27 0.17 0.16 0.15
1.01 0.53 0.43 0.57 0.48 0.57 0.76 0.88 1.28 1.01 0.85 0.97 1.14 1.09 0.75 0.71 0.54 0.60 1.09 0.82 0.62 0.97 nan 0.79 nan 0.55 nan nan 0.63 0.50 0.73 0.76 0.78 0.84 0.66 0.32 0.31 0.49 0.56 0.39 0.63 0.57 1.08
0.68 0.36 0.50 0.73 0.83 0.52 0.50 0.82 0.72 0.52 1.04 1.72 2.07 1.48 1.51 1.41 1.03 0.59 1.42 1.64 1.57 1.50 1.32 1.77 1.40 0.89 0.83 0.72 0.88 0.77 0.72 0.80 0.91 0.91 0.89 0.83 0.78 0.76 0.74 0.57 0.63 0.87 1.17
0.38 0.59 0.61 0.62 0.52 0.46 0.46 0.49 nan nan nan nan nan 1.26 1.66 nan nan nan nan nan nan nan 2.66 2.60 1.23 0.95 0.70 0.71 0.88 0.79 0.71 0.71 0.70 0.84 0.95 0.97 1.03 0.85 0.89 1.00 0.99 1.14 1.20
0.76 0.50 0.64 0.53 0.53 0.61 0.65 0.75 0.86 0.68 nan nan nan nan nan nan nan nan nan nan nan nan 3.99 1.97 1.56 1.03 0.93 0.72 0.87 0.78 0.74 0.62 0.40 0.76 0.75 0.86 0.97 1.12 1.20 1.14 1.03 0.96 1.41
0.71 0.68 0.77 0.75 0.73 0.77 0.83 0.85 0.88 1.02 1.16 0.95 nan nan nan nan nan nan nan nan 3.27 nan 2.83 2.76 2.30 1.79 1.29 1.14 0.91 0.85 0.85 0.80 0.77 0.94 0.99 1.47 1.70 1.82 1.67 1.66 1.25 1.58 1.54
0.75 0.64 0.72 0.73 0.72 0.76 0.83 0.71 0.78 0.77 0.81 1.05 1.01 1.04 0.91 nan nan nan nan 2.00 2.77 2.44 2.44 2.53 2.05 1.84 1.41 1.53 1.44 1.68 1.42 1.47 1.40 1.95 1.99 2.18 2.00 2.11 2.09 1.51 1.17 0.95 1.05
0.80 0.82 0.79 1.06 0.93 0.83 0.59 0.74 0.66 0.70 0.77 0.94 1.00 0.88 1.62 1.81 2.46 2.58 2.14 3.01 2.96 2.58 2.20 2.46 2.49 2.74 2.79 2.57 2.51 2.29 2.29 2.41 2.15 2.27 2.24 2.17 2.05 2.23 1.41 2.08 1.80 1.43 1.71
1.38 1.12 0.85 0.94 1.20 1.24 1.27 0.98 0.74 1.07 0.95 1.18 0.90 0.88 nan 1.61 1.79 2.00 2.39 2.16 2.60 2.87 2.30 2.56 2.67 3.51 3.67 4.08 3.30 3.14 2.90 1.71 2.23 2.49 2.67 2.67 2.58 3.26 1.93 1.20 1.86 2.03 1.97
1.45 1.52 1.51 1.61 1.05 1.09 1.31 0.83 0.94 0.97 0.92 0.79 0.60 0.71 nan 0.95 1.23 1.32 1.52 2.13 2.70 2.71 3.12 3.75 3.67 4.08 3.53 3.23 2.87 2.66 2.16 2.66 2.96 2.74 2.16 2.30 2.77 2.39 2.39 1.58 1.69 1.44 2.01
1.21 1.01 1.08 1.06 1.02 1.38 1.17 1.43 1.21 1.15 1.02 1.18 1.03 1.03 1.24 1.67 1.41 1.36 2.25 2.58 1.95 1.80 2.10 2.27 2.12 2.11 1.98 2.36 2.06 2.00 2.16 2.52 2.66 3.62 2.31 2.45 2.37 2.81 2.52 2.20 1.92 2.13 2.03
1.06 1.07 1.04 1.48 1.25 0.96 1.21 1.32 1.08 1.42 1.17 1.32 2.34 1.82 0.97 1.38 2.16 1.48 1.61 2.00 1.59 3.03 2.03 2.22 1.75 1.71 1.96 3.22 4.23 4.14 4.51 4.77 4.49 4.05 3.58 2.26 2.25 1.99 1.91 2.31 1.79 1.72 1.39
1.34 1.09 1.12 1.02 1.75 1.31 1.20 1.53 0.99 1.50 1.85 1.38 1.83 1.25 1.31 1.19 1.35 2.17 1.99 1.58 1.82 1.67 1.40 1.39 1.48 1.56 1.60 1.72 2.54 3.38 3.62 1.42 2.58 1.55 3.06 2.01 2.50 2.56 2.42 2.03 1.89 1.55 1.33
1.03 1.08 1.12 1.16 1.12 1.30 1.41 1.39 1.48 1.12 1.54 1.69 1.54 1.58 1.31 1.31 1.35 1.73 1.58 1.60 1.24 1.31 1.39 1.55 1.55 1.33 1.23 1.45 1.57 1.63 1.32 1.16 2.72 1.32 2.39 1.86 2.20 2.00 1.96 2.00 1.83 1.74 1.39
SL_Ratio
nan nan nan nan nan nan nan nan nan nan nan nan nan nan nan nan nan nan nan nan 4.3 4.0 nan nan nan nan nan 5.0 4.0 2.2 2.2 2.6 3.9 3.0 2.7 2.8 4.3 5.0 5.4 5.8 5.4 5.0 6.3
nan nan nan nan nan nan nan nan nan nan nan nan nan nan nan nan nan nan 10.0 4.3 4.2 5.0 nan nan nan 0.0 4.7 4.5 2.9 3.4 3.0 2.5 3.9 4.7 3.8 4.9 5.5 5.6 5.6 6.1 5.0 6.7 5.6
nan nan nan nan nan nan nan nan nan nan nan nan nan nan nan nan nan nan nan nan nan nan nan 3.3 4.7 4.7 4.4 4.2 2.9 3.3 3.6 2.9 3.7 4.8 5.1 5.8 6.6 6.2 6.6 6.9 6.2 6.7 5.6
nan nan nan nan nan nan nan nan nan nan nan nan nan nan nan 2.7 2.0 4.2 4.3 4.3 4.2 4.2 4.5 4.5 4.6 4.6 4.5 4.0 4.4 3.7 3.9 4.9 4.3 4.9 5.5 6.1 6.8 7.0 6.6 6.7 6.2 7.0 6.8
nan nan nan nan nan 3.9 4.2 4.3 4.3 4.7 nan nan nan 5.5 3.6 4.1 5.0 4.7 4.1 4.2 4.3 4.5 4.3 4.2 4.1 3.2 nan nan 4.9 5.6 5.3 5.4 5.7 6.5 7.0 7.2 7.2 7.5 7.2 7.1 5.8 5.6 5.7
0.0 5.0 3.3 4.2 4.7 4.8 4.8 4.9 5.1 5.6 5.7 5.9 6.4 6.3 6.3 4.4 nan nan 4.1 4.3 4.2 3.8 4.2 4.6 4.5 4.4 4.6 nan nan nan nan 6.6 9.0 8.6 7.5 8.8 7.4 6.9 7.0 6.6 6.5 6.2 7.2
5.0 5.4 5.4 5.5 5.9 5.6 5.7 6.4 6.9 6.7 6.3 6.9 7.0 6.7 7.3 6.1 nan nan nan 4.6 4.8 4.0 4.4 4.8 4.9 4.9 4.0 5.1 nan nan nan nan nan 6.4 7.8 7.2 7.5 6.8 7.0 7.7 7.1 5.6 5.7
5.7 6.7 6.9 6.9 7.5 7.5 7.6 7.6 7.3 6.9 7.5 7.7 7.6 7.3 7.0 6.6 nan nan nan 4.5 5.0 4.7 4.6 5.0 5.3 5.5 5.7 5.3 5.3 7.0 6.5 6.5 6.2 6.5 6.8 7.0 6.6 6.6 7.2 7.6 7.9 6.9 6.1
6.0 6.5 6.9 7.4 7.7 7.8 8.0 8.1 8.4 8.6 8.9 9.4 8.3 8.7 8.3 7.8 nan nan 5.0 6.5 7.0 6.8 6.1 6.7 6.8 6.6 nan nan 8.2 9.2 8.7 7.6 nan nan nan nan nan nan nan 6.8 7.4 7.5 7.6
6.4 6.3 6.9 7.6 7.8 8.2 8.0 8.2 7.9 8.2 9.5 8.8 9.2 8.5 5.1 8.5 nan nan nan 6.6 8.3 7.7 7.7 7.0 3.3 6.7 nan nan 7.7 9.0 9.3 8.6 8.0 8.4 7.4 6.5 nan nan nan 7.5 7.2 8.1 7.6
7.3 7.9 8.2 8.2 8.2 8.0 7.9 7.7 8.0 9.5 9.3 9.2 9.1 8.8 8.7 6.9 7.2 nan nan 7.0 7.3 7.8 7.6 7.9 7.3 nan nan nan nan 8.6 8.9 8.0 8.8 8.9 8.6 8.3 7.5 7.4 7.0 7.2 7.6 6.9 7.6
8.0 8.9 8.8 8.6 8.1 8.1 8.5 8.8 8.9 9.3 9.4 9.4 9.3 9.2 8.5 8.3 nan nan nan nan nan 7.3 7.8 7.5 7.2 nan nan nan 4.8 nan nan 4.5 7.6 8.5 8.6 8.6 8.4 8.3 7.9 7.8 8.2 7.5 6.6
9.8 9.6 9.6 8.9 8.8 8.5 8.7 9.4 8.6 9.3 9.3 9.4 9.3 9.2 9.1 8.6 8.1 nan nan nan nan 6.8 6.9 7.6 nan nan nan nan nan nan 3.0 7.2 8.4 9.0 9.2 8.7 8.5 8.2 8.5 8.1 7.6 7.7 7.8
9.4 9.8 10.1 9.9 8.3 8.7 7.9 8.0 8.3 9.0 9.4 9.2 9.2 9.2 9.3 9.5 9.2 8.5 7.4 6.2 4.7 7.0 nan 6.7 nan 7.7 nan nan 6.5 7.1 8.0 8.1 8.8 9.2 8.7 8.5 8.3 8.5 8.5 8.2 8.3 8.1 7.9
10.1 10.7 8.9 8.5 8.3 9.2 9.4 8.6 9.3 8.6 8.8 9.5 9.1 9.6 9.8 9.5 9.3 9.3 8.5 8.0 7.1 7.5 6.6 8.6 8.9 9.3 9.5 9.5 9.4 9.3 9.2 9.2 9.3 9.0 9.1 9.0 8.8 8.5 8.4 8.5 8.5 8.3 8.5
10.8 10.1 9.5 9.0 8.9 9.4 9.8 10.0 nan nan nan nan nan 7.7 8.0 nan nan nan nan nan nan nan 7.9 8.9 9.8 9.9 10.2 10.2 10.1 10.3 10.2 9.2 10.0 9.8 9.5 9.3 9.3 9.2 9.1 8.8 8.5 8.7 9.1
9.6 10.0 10.0 9.4 10.4 10.2 10.0 10.0 10.1 9.4 nan nan nan nan nan nan nan nan nan nan nan nan 8.3 9.3 9.8 10.3 10.5 11.0 10.8 11.0 11.3 10.7 11.1 10.3 10.1 9.7 9.4 9.0 8.7 8.8 8.8 8.8 8.6
10.0 3.0 10.1 10.2 10.2 10.2 10.2 10.1 10.0 10.0 9.9 10.0 nan nan nan nan nan nan nan nan 8.4 nan 8.7 9.0 9.4 9.7 10.5 10.9 11.2 11.6 11.5 11.5 11.4 10.7 10.5 9.6 9.2 9.1 8.9 8.6 8.7 8.4 8.4
10.2 10.3 10.1 10.1 10.0 9.9 10.0 10.4 10.3 10.4 10.4 10.0 10.0 9.7 6.1 nan nan nan nan 9.0 8.8 9.1 9.1 9.1 9.6 9.9 10.4 10.2 10.4 10.1 10.6 10.6 10.6 9.9 9.7 9.4 9.2 9.0 8.8 8.7 8.9 6.7 7.2
10.4 4.1 8.0 10.2 10.6 10.6 10.9 10.8 11.0 10.8 10.9 10.3 10.1 10.1 9.5 8.5 8.9 8.9 9.1 8.6 8.8 9.0 9.3 9.3 9.4 9.3 9.2 9.3 9.4 9.5 9.7 9.6 9.9 9.8 9.8 9.6 9.3 8.9 9.7 8.6 8.5 9.1 8.4
10.6 10.9 3.0 11.2 10.6 10.5 10.4 11.0 11.4 10.7 10.7 10.2 10.4 10.2 nan 9.8 9.6 9.3 9.1 9.4 9.2 9.0 9.4 9.3 9.4 8.9 8.7 8.5 8.9 9.0 9.3 10.2 9.7 9.6 9.4 9.4 9.3 8.8 9.0 9.8 8.8 8.4 8.5
11.0 10.7 10.7 10.7 11.7 11.6 11.0 11.7 11.4 11.3 11.3 11.5 11.7 10.8 nan 10.6 10.4 10.1 10.2 9.6 9.3 9.4 9.3 9.0 9.0 8.8 9.0 9.1 9.4 9.4 9.8 9.4 9.1 9.4 10.0 9.9 9.4 9.4 8.9 9.3 9.0 9.1 8.4
11.8 12.6 12.1 12.1 12.1 4.5 11.5 10.8 11.1 11.0 11.2 10.6 10.6 11.2 11.1 10.0 10.3 10.7 9.7 9.7 10.3 10.5 10.1 10.0 10.0 10.1 10.1 9.8 9.9 10.0 10.1 9.8 9.7 8.9 10.2 9.9 10.0 9.4 9.1 9.1 9.0 8.7 8.4
12.5 12.2 12.0 11.0 11.3 12.0 11.2 11.0 11.5 4.1 11.0 10.8 10.0 10.1 11.1 10.8 10.2 11.0 10.8 10.4 10.6 9.4 10.1 10.0 10.5 10.5 10.0 9.1 8.5 8.6 8.4 8.3 8.6 8.8 9.0 10.3 10.3 9.5 10.2 9.2 9.2 8.6 9.3
11.6 12.0 11.8 11.8 10.5 11.1 11.3 10.7 11.6 10.7 10.4 10.7 10.1 11.1 11.4 11.7 11.0 10.0 10.2 10.5 10.2 10.2 10.4 10.5 10.3 10.2 10.1 10.0 9.4 8.9 8.2 3.0 7.7 3.0 9.3 10.4 10.1 10.2 10.2 9.9 9.8 10.0 9.5
11.7 11.5 11.3 11.1 11.1 10.8 10.6 10.7 10.6 11.2 10.6 10.5 10.8 10.7 11.0 11.0 10.8 10.2 10.4 10.4 10.7 10.5 10.2 10.1 10.1 10.1 10.2 10.1 10.0 4.1 3.0 3.0 8.8 3.0 9.7 10.4 10.3 11.0 11.1 10.9 11.0 10.4 10.4